SCP
0 0 0 0 0 0 0 0 0 0 0 0 0 0 -0 -0 0 0 0 0 0 0 0 0 0 0 0 0 0 0 0 0 0 0 0 0 0 0 0 0 0 0 0 0
0 0 0 0 0 0 0 0 0 0 0 0 0 0 0 0 0 0 0 0 0 0 0 0 0 0 0 0 0 0 0 0 0 0 0 0 0 0 0 0 0 0 0 0
0 0 0 0 0 0 0 0 0 0 0 0 0 0 0 0 0 0 0 0 0 0 0 0 0 0 0 0 0 0 0 0 0 0 0 0 0 0 0 0 0 0 0 0
0 0 0 0 0 0 0 0 0 0 0 0 0 0 0 0 0 0 0 0 0 0 0 0 0 0 0 0 0 0 0 0 0 0 0 0 0 0 0 0 0 0 0 0
0 0 0 0 0 0 0 0 0 0 0 0 0 0 0 0 0 0 0 0 0 0 0 0 0 0 0 0 0 0 0 0 0 0 0 0 0 0 0 0 0 0 0 0
0 0 0 0 0 0 0 0 0 0 0 0 0 0 0 0 0 0 0 0 0 0 0 0 0 0 0 0 0 0 0 0 0 0 0 0 0 0 0 0 0 0 0 0
0 0 0 0 0 0 0 0 0 0 0 0 0 0 0 0 0 0 0 0 0 0 0 0 0 0 0 0 0 0 0 0 0 0 0 0 0 0 0 0 0 0 0 0
0 0 0 0 0 0 0 0 0 0 0 0 0 0 0 0 0 0 0 0 0 0 0 0 0 0 0 0 0 0 0 0 0 0 0 0 0 0 0 0 0 0 0 0
0 0 0 0 0 0 0 0 0 0 0 0 0 0 0 0 0 0 0 0 0 0 0 0 0 0 0 0 0 0 0 0 0 0 0 0 0 0 0 0 0 0 0 0
0 0 0 0 0 0 0 0 0 0 0 0 0 0 0 0 0 0 0 0 0 0 0 0 0 0 0 0 0 0 0 0 0 0 0 0 0 0 0 0 0 0 0 0
0 0 0 0 0 0 0 0 0 0 0 0 0 0 0 0 0 0 0 0 0 0 0 0 0 0 0 0 0 0 0 0 0 0 0 0 0 0 0 0 0 0 0 0
0 0 0 0 0 0 0 0 0 0 0 0 0 0 0 0 0 0 0 0 0 0 0 0 0 0 0 0 0 0 0 0 0 0 0 0 0 0 0 0 0 0 0 0
0 0 0 0 0 0 0 0 0 0 0 0 0 0 0 0 0 0 0 0 0 0 0 0 0 0 0 0 0 0 0 0 0 0 0 0 0 0 0 0 0 0 0 0
0 0 0 0 0 0 0 0 0 0 0 0 0 0 0 0 0 0 0 0 0 0 0 0 0 0 0 0 0 0 0 0 0 0 0 0 0 0 0 0 0 0 0 0
0 0 0 0 0 0 0 0 0 0 0 0 0 0 0 0 0 0 0 0 0 0 0 0 0 0 0 0 0 0 0 0 0 0 0 0 0 0 0 0 0 0 0 0
0 0 0 0 0 0 0 0 0 0 0 0 0 0 0 0 0 0 0 0 0 0 0 0 0 0 0 0 0 0 0 0 0 0 0 0 0 0 0 0 0 0 0 0
0 0 0 0 0 0 0 0 0 0 0 0 0 0 0 0 0 0 0 0 0 0 0 0 0 0 0 0 0 0 0 0 0 0 0 0 0 0 0 0 0 0 0 0
0 0 0 0 0 0 0 0 0 0 0 0 0 0 0 0 0 0 0 0 0 0 0 0 0 0 0 0 0 0 0 0 0 0 0 0 0 0 0 0 0 0 0 0
0 0 0 0 0 0 0 0 0 0 0 0 0 0 0 0 0 0 0 0 0 0 0 0 0 0 0 0 0 0 0 0 0 0 0 0 0 0 0 0 0 0 0 0
0 0 0 0 0 0 0 0 0 0 0 0 0 0 0 0 0 0 0 0 0 0 0 0 0 0 0 0 0 0 0 0 0 0 0 0 0 0 0 0 0 0 0 0
0 0 0 0 0 0 0 0 0 0 0 0 0 0 0 0 0 0 0 0 0 0 0 0 0 0 0 0 0 0 0 0 0 0 0 0 0 0 0 0 0 0 0 0
0 0 0 0 0 0 0 0 0 0 0 0 0 0 0 0 0 0 0 0 0 0 0 0 0 0 0 0 0 0 0 0 0 0 0 0 0 0 0 0 0 0 0 0
0 0 0 0 0 0 0 0 0 0 0 0 0 0 0 0 0 0 0 0 0 0 0 0 0 0 0 0 0 0 0 0 0 0 0 0 0 0 0 0 0 0 0 0
0 0 0 0 0 0 0 0 0 0 0 0 0 0 0 0 0 0 0 0 0 0 0 0 0 0 0 0 0 0 0 0 0 0 0 0 0 0 0 0 0 0 0 0
0 0 0 0 0 0 0 0 0 0 0 0 0 0 0 0 0 0 0 0 0 0 0 0 0 0 0 0 0 0 0 0 0 0 0 0 0 0 0 0 0 0 0 0
0 0 0 0 0 0 0 0 0 0 0 0 0 0 0 0 0 0 0 0 0 0 0 0 0 0 0 0 0 0 0 0 0 0 0 0 0 0 0 0 0 0 0 0
0 0 0 0 0 0 0 0 0 0 0 0 0 0 0 0 0 0 0 0 0 0 0 0 0 0 0 0 0 0 0 0 0 0 0 0 0 0 0 0 0 0 0 0
Wind_Speed
6 5 4 6 8 9 11 11 11 11 12 13 9 8 7 6 6 5 5 5 4 4 3 3 2 2 2 1 1 1 1 1 1 1 1 1 1 1 1 1 1 2 2 2
5 6 7 9 12 13 14 14 15 14 16 12 10 8 7 7 6 6 6 6 5 5 4 3 3 2 2 2 2 2 1 1 1 1 1 1 1 1 1 1 1 1 2 2
5 3 5 10 11 13 11 11 11 14 12 7 7 7 7 6 6 6 6 6 5 5 4 4 3 3 3 2 2 2 1 1 1 1 1 1 1 1 1 1 1 2 2 2
3 3 10 5 1 7 11 11 12 11 9 7 7 8 7 5 5 6 6 5 5 4 4 3 3 3 2 2 2 2 2 2 1 1 1 1 1 2 2 2 2 2 2 3
4 6 9 7 4 5 7 8 8 10 9 8 6 6 4 3 4 5 5 4 4 4 3 3 3 2 2 2 2 2 2 2 2 2 2 2 2 2 2 2 2 2 2 3
5 7 8 3 2 2 3 7 3 5 6 5 3 5 3 1 3 3 3 3 3 3 3 3 2 2 3 3 3 3 3 3 2 2 3 3 3 2 2 2 2 2 3 3
8 9 9 3 2 4 6 3 0 3 4 4 5 5 4 4 4 3 3 3 2 2 2 3 2 2 3 3 3 3 2 2 2 3 3 3 3 2 2 2 2 2 3 3
7 8 9 3 5 6 3 2 2 3 4 4 5 5 5 4 4 3 3 3 3 2 2 2 2 3 3 3 2 2 2 2 2 3 2 2 3 2 2 2 2 2 3 3
8 7 2 4 5 4 3 4 5 5 4 4 4 5 5 5 4 4 3 3 3 2 3 2 2 3 4 3 2 2 2 3 3 3 3 3 3 3 2 2 2 2 2 2
7 9 7 7 8 7 7 7 6 5 5 4 5 5 5 5 4 4 4 3 3 2 3 3 2 3 3 3 2 2 3 3 3 3 3 3 2 2 2 2 2 2 3 3
9 9 7 8 9 9 8 7 6 6 6 6 5 6 6 5 5 4 4 3 3 3 3 4 3 3 3 2 2 3 3 3 3 3 3 3 2 2 3 3 3 3 3 3
8 7 7 6 5 6 7 7 7 6 6 5 6 6 6 5 5 4 4 4 4 4 4 4 3 3 3 2 3 3 3 3 2 2 2 2 2 2 3 3 4 5 5 4
9 7 7 8 7 6 7 7 6 6 6 6 6 5 5 5 5 4 5 5 5 5 4 4 3 3 3 3 3 4 4 3 2 2 2 2 2 3 2 2 3 4 5 5
9 8 9 8 8 7 6 6 5 5 6 6 5 5 5 5 5 5 5 5 5 5 4 4 4 4 3 3 3 4 4 3 3 3 3 3 3 2 2 2 2 2 3 4
8 8 9 8 7 6 5 4 5 6 6 5 5 5 5 5 6 6 5 4 4 4 4 4 4 4 3 3 3 4 3 3 3 2 2 2 2 2 2 3 2 2 2 2
6 6 7 7 7 6 5 6 6 7 6 6 5 5 5 5 5 5 5 4 4 5 4 4 4 4 3 3 3 3 3 4 3 2 2 2 2 2 2 2 2 2 2 2
6 6 6 7 7 7 6 6 7 7 6 6 6 5 5 4 4 5 4 4 4 5 5 5 5 4 3 3 4 3 3 3 4 3 2 3 3 3 2 2 2 2 2 2
6 7 7 7 6 6 6 6 6 6 6 6 5 4 5 5 5 5 4 3 3 4 4 4 4 3 3 3 3 3 3 3 3 3 3 3 3 2 2 2 2 3 2 2
4 5 5 5 5 5 5 5 5 5 5 4 4 5 5 5 5 4 4 4 4 5 4 3 4 3 3 4 3 3 3 3 3 3 3 3 3 2 2 3 2 2 2 2
4 4 4 3 3 3 4 4 4 4 4 4 4 4 4 5 4 4 4 5 5 4 3 4 4 4 4 4 4 3 3 3 3 3 3 3 3 3 3 3 3 3 2 2
4 4 3 3 4 4 4 4 4 4 4 4 4 5 5 4 4 4 4 5 4 3 3 4 3 3 3 3 4 3 3 3 3 3 3 3 3 3 3 3 3 3 2 2
4 4 4 4 4 4 4 3 3 4 4 4 4 4 4 4 4 4 5 4 4 4 3 3 3 4 4 4 3 3 3 3 3 3 3 3 3 3 3 3 3 3 3 3
4 4 4 4 4 4 3 3 3 3 4 4 4 4 4 4 3 3 4 3 3 4 3 3 4 6 6 3 3 3 3 3 3 3 3 3 3 3 3 3 3 3 3 3
5 4 4 3 3 3 3 3 3 3 3 4 4 4 3 3 3 3 3 4 4 4 3 4 6 6 5 3 3 3 3 4 4 3 3 3 3 3 3 3 3 3 3 3
4 3 3 3 3 3 3 3 2 2 2 2 3 3 3 3 3 3 3 3 4 4 3 4 5 5 3 2 3 3 3 3 3 3 3 3 3 3 3 3 3 3 3 3
3 3 3 3 3 3 2 2 2 2 2 2 3 2 2 2 3 3 2 3 3 4 3 3 3 4 3 3 3 3 3 3 4 3 3 3 3 3 3 3 4 3 3 3
3 2 2 2 2 2 2 2 3 3 3 3 3 3 2 2 2 3 3 3 3 3 3 3 3 3 3 3 3 3 3 3 3 3 3 3 3 3 3 3 3 3 3 3
Wind_Direction
263 272 253 248 241 224 223 233 244 257 260 271 285 291 291 286 280 274 267 263 263 268 271 270 263 252 246 240 224 205 197 210 235 243 244 247 254 259 269 277 283 289 294 299
254 249 251 260 250 238 237 240 248 262 269 276 290 291 287 284 278 273 268 266 265 261 259 258 254 246 241 232 219 204 200 215 234 238 242 245 254 258 263 268 275 285 289 292
251 262 267 257 239 225 226 228 231 244 257 278 285 286 289 287 280 274 274 273 270 263 255 250 244 239 234 228 218 209 210 219 230 239 246 258 267 263 262 261 269 278 285 291
260 241 241 251 215 220 231 243 236 248 262 269 281 297 294 277 273 278 278 276 270 266 265 255 244 232 221 222 219 213 217 226 230 231 239 255 261 263 270 270 267 271 281 290
223 244 264 269 235 208 222 255 235 239 257 275 289 287 266 256 275 276 277 278 273 265 258 252 240 225 207 210 216 224 232 239 240 236 237 245 256 263 267 266 270 276 284 288
219 239 247 258 147 185 214 257 231 223 246 269 265 268 285 336 312 294 286 282 281 273 253 238 230 221 212 212 217 230 240 245 243 238 235 240 247 256 261 259 268 278 281 284
228 244 260 276 180 176 219 260 121 235 249 253 249 275 308 310 307 302 299 290 280 264 245 239 224 209 223 223 230 240 245 247 244 239 238 239 240 244 245 251 263 271 276 282
210 227 247 160 166 208 259 342 272 268 262 255 263 283 288 291 298 303 303 296 289 269 259 252 226 216 232 238 243 236 232 238 244 245 242 237 235 236 237 242 253 265 274 287
213 230 295 189 226 261 289 274 277 276 270 263 269 277 282 292 296 294 289 284 281 266 262 261 244 230 237 248 236 227 232 236 240 244 242 238 237 234 234 237 246 259 268 281
248 255 255 252 255 264 266 265 271 272 268 264 263 271 276 283 290 291 287 282 278 267 258 264 259 248 245 250 226 218 231 242 242 241 242 240 239 234 232 234 242 251 260 270
248 259 270 256 249 255 259 260 265 268 260 255 255 262 266 274 281 284 283 280 271 261 256 258 259 255 257 251 224 226 235 238 240 238 239 237 231 232 238 240 250 257 260 264
244 244 243 260 262 259 255 257 258 261 265 259 250 252 259 265 270 272 271 272 269 262 258 258 256 257 260 252 233 228 234 239 239 240 240 238 232 241 253 263 271 270 271 273
259 270 266 274 279 270 264 266 264 259 258 262 257 250 255 263 268 267 266 264 261 258 255 252 248 254 255 243 236 233 238 242 241 239 238 237 235 238 250 259 264 272 275 277
259 263 267 267 270 272 270 270 270 267 263 258 258 253 250 257 261 260 261 261 260 257 252 245 243 252 256 243 241 242 241 240 239 237 238 236 237 242 248 257 266 275 282 289
259 258 261 273 275 271 267 262 263 263 264 263 257 250 246 248 254 262 265 261 254 251 250 245 246 256 257 242 241 246 241 237 237 241 238 237 237 237 240 248 260 275 286 288
277 269 262 261 260 264 265 259 257 261 264 265 259 254 250 250 258 266 265 254 243 244 245 242 246 255 248 238 239 242 239 235 236 239 235 230 229 231 235 240 251 265 275 287
265 264 260 259 259 262 262 260 259 261 262 260 259 258 253 251 255 259 261 257 251 252 250 244 249 251 239 234 235 238 239 230 228 236 237 234 230 231 234 238 245 256 270 285
258 260 259 260 261 264 265 263 259 259 258 261 264 254 243 240 247 255 262 264 259 261 258 256 253 248 244 242 238 235 233 229 225 230 231 230 235 236 237 239 246 256 271 275
263 261 263 263 261 257 259 261 262 260 259 255 249 248 249 251 253 257 257 249 246 255 264 259 249 246 246 241 237 229 224 226 227 230 229 231 233 232 234 237 244 253 260 264
273 267 264 268 270 263 262 265 263 259 258 250 247 250 254 255 252 253 251 249 250 259 260 251 247 246 244 235 228 228 224 228 229 227 227 228 230 232 234 237 240 247 251 255
279 275 272 274 278 276 268 264 258 260 262 250 243 246 252 258 253 247 249 258 266 260 250 241 241 240 236 230 226 227 224 228 229 224 224 227 231 233 235 236 239 244 250 256
282 277 279 280 279 283 282 272 260 255 256 255 254 249 248 253 254 256 254 260 267 257 253 243 242 241 237 230 225 224 224 226 229 225 221 224 227 230 233 236 240 244 248 254
286 281 276 272 269 276 283 273 259 252 250 249 245 243 245 250 252 254 265 265 258 254 255 247 243 244 243 233 224 220 220 221 225 225 222 223 227 229 231 234 239 241 244 249
283 280 275 275 264 259 267 273 268 261 257 259 254 249 248 253 261 261 268 270 266 261 259 251 249 249 246 231 223 221 219 221 222 225 224 223 224 225 227 231 238 245 249 253
279 275 269 260 253 256 264 273 274 270 267 269 272 266 257 255 260 270 271 263 261 265 266 257 254 255 246 231 225 223 222 223 224 223 222 220 221 223 226 230 236 243 248 251
275 270 266 261 263 265 259 252 257 260 260 269 278 276 270 267 265 266 266 264 261 264 265 258 251 248 239 235 231 227 224 225 229 229 224 222 224 227 229 233 240 243 248 253
283 278 275 276 276 266 260 257 257 260 258 259 274 280 276 273 268 267 267 266 262 260 259 253 247 239 235 231 228 224 223 224 224 223 220 220 221 224 226 231 238 243 247 251